This is the latest recevied weather packets stored in our database for station/object KC0QBU-13. If no packets are shown the sender has not sent any weather packets the latest 10 day(s).
| Time | Temp. | Humidity | Pressure | Rain* | Wind** | Luminosity | Snow |
|---|---|---|---|---|---|---|---|
| 1777833771 | 25.56° C | 37% | 1012.7 hPa | 0 mm | - | - | - |
| 1777833471 | 25.56° C | 37% | 1012.7 hPa | 0 mm | - | - | - |
| 1777833141 | 25.56° C | 40% | 1012.8 hPa | 0 mm | - | - | - |
| 1777832841 | 25.56° C | 39% | 1012.8 hPa | 0 mm | - | - | - |
| 1777832541 | 25° C | 41% | 1012.7 hPa | 0 mm | - | - | - |
| 1777832241 | 25° C | 39% | 1012.9 hPa | 0 mm | - | - | - |
| 1777831911 | 25° C | 42% | 1013 hPa | 0 mm | - | - | - |
| 1777831611 | 24.44° C | 47% | 1013 hPa | 0 mm | - | - | - |
| 1777831311 | 24.44° C | 40% | 1013 hPa | 0 mm | - | - | - |
| 1777831011 | 24.44° C | 40% | 1013.2 hPa | 0 mm | - | - | - |
| 1777830681 | 24.44° C | 40% | 1013.3 hPa | 0 mm | - | - | - |
| 1777830381 | 23.89° C | 43% | 1013.3 hPa | 0 mm | - | - | - |
| 1777830051 | 24.44° C | 41% | 1013.5 hPa | 0 mm | - | - | - |
| 1777829751 | 24.44° C | 41% | 1013.7 hPa | 0 mm | - | - | - |
| 1777829451 | 23.89° C | 39% | 1013.7 hPa | 0 mm | - | - | - |
| 1777829121 | 24.44° C | 39% | 1013.8 hPa | 0 mm | - | - | - |
| 1777828791 | 23.89° C | 41% | 1013.8 hPa | 0 mm | - | - | - |
| 1777828491 | 23.33° C | 42% | 1013.9 hPa | 0 mm | - | - | - |
| 1777828161 | 23.33° C | 41% | 1014 hPa | 0 mm | - | - | - |
| 1777827861 | 23.33° C | 42% | 1014.1 hPa | 0 mm | - | - | - |
| 1777827561 | 23.33° C | 40% | 1014.2 hPa | 0 mm | - | - | - |
| 1777827231 | 22.78° C | 41% | 1014.3 hPa | 0 mm | - | - | - |
| 1777826931 | 22.78° C | 42% | 1014.3 hPa | 0 mm | - | - | - |
| 1777826601 | 23.33° C | 42% | 1014.3 hPa | 0 mm | - | - | - |
| 1777826271 | 23.33° C | 42% | 1014.3 hPa | 0 mm | - | - | - |
* Rain latest hour (hover to see other rain measurements)
** Current wind speed in m/s (hover to see current wind gust speed)